[[{"header":{"parameterUnit":"m.s-1","parameterCategory":1,"la1":30.2991,"la2":30.254,"lo1":-89.0895,"lo2":-89.0444,"dy":0.0017,"dx":0.0017,"nx":28,"ny":28,"refTime":"2025-12-30T09:00:00:Z","depth":0,"parameterNumber":2,"parameterNumberName":"U-component_of_WINDS"},"data":[0,0,0,0,0,0,0,0,0,0,0,0,0,0,0,0,0,0,0,0,0,0,0,0,0,0,0,0,0,0,0,0,0,0,0,0,0,0,0,0,0,0,0,0,0,0,0,0,0,0,0,0,0,0,0,0,0,0,1.2933,1.2932,0,1.29,1.2899,1.2899,1.2879,1.2879,1.2879,1.2879,1.2843,1.2842,1.2841,0,0,0,0,0,0,0,0,0,0,0,0,0,1.2977,1.2976,1.2933,1.2932,1.2932,1.29,1.2899,1.2899,1.2879,1.2879,1.2879,1.2879,1.2843,1.2842,1.2841,0,0,0,0,0,0,0,0,0,0,0,0,0,1.2952,1.2976,1.2933,1.2918,1.2917,1.29,1.2899,1.2899,1.2879,1.2879,1.2879,1.2879,1.2843,1.2842,1.2841,1.2835,0,0,1.2837,1.2836,0,0,0,0,0,0,0,0,1.2954,1.2951,1.2921,1.2919,1.2918,1.2894,1.2902,1.2877,1.2879,1.2893,1.2879,1.2879,1.286,1.2857,1.2851,1.2833,1.2832,1.2837,1.2836,1.2835,1.2835,0,0,0,0,0,0,0,1.2956,1.2952,1.292,1.2921,1.2918,1.2913,1.2909,1.2897,1.2877,1.2892,1.2891,1.2887,1.2859,1.2852,1.285,1.2831,1.2837,1.2835,1.2835,1.2834,1.2808,1.2808,0,0,0,0,0,0,1.296,1.2954,1.2921,1.2919,1.2936,1.2912,1.2908,1.2901,1.2878,1.2874,1.2887,1.2886,1.2855,1.2851,1.2849,1.2841,1.2835,1.2834,1.2833,1.2808,1.2808,1.2808,0,0,0,0,0,0,1.2961,1.2957,1.2922,1.2936,1.2931,1.2912,1.2904,1.2901,1.2894,1.2874,1.287,1.2885,1.2854,1.285,1.2839,1.2839,1.2833,1.2832,1.2808,1.2808,1.2808,1.2825,0,0,0,0,0,0,1.2962,1.2958,1.2955,1.2936,1.293,1.2913,1.2904,1.29,1.2892,1.2891,1.287,1.2867,1.2854,1.2841,1.2838,1.2837,1.2831,1.2808,1.2808,1.2808,1.2824,1.2825,1.2827,0,0,0,0,0,1.2964,1.2961,1.2955,1.2952,1.2927,1.2913,1.291,1.2896,1.2893,1.289,1.2877,1.2867,1.284,1.284,1.2836,1.2835,1.2808,1.2808,1.2808,1.2823,1.2825,1.2827,0,0,0,0,0,0,1.2979,1.2958,1.2952,1.2942,1.293,1.291,1.2906,1.2898,1.2886,1.2885,1.2867,1.2863,1.2853,1.2843,1.2844,1.2829,1.2823,1.2822,1.2836,1.2837,1.2838,1.2841,1.283,0,0,0,0,0,1.2982,1.2973,1.2955,1.2948,1.2942,1.2926,1.2919,1.291,1.2896,1.289,1.2876,1.2863,1.2851,1.2844,1.2832,1.2823,1.2818,1.282,1.2822,1.2823,1.2822,1.2817,1.2818,1.2809,1.2809,1.2809,0,0,1.2987,1.2974,1.2969,1.2951,1.294,1.2931,1.2921,1.2912,1.2905,1.2888,1.2877,1.2867,1.285,1.284,1.2835,1.2832,1.2824,1.2823,1.2824,1.2823,1.2818,1.2819,1.2819,1.2809,1.2809,1.2809,0,0,1.299,1.298,1.2974,1.2964,1.2948,1.2938,1.2936,1.2918,1.2911,1.2899,1.2887,1.2879,1.2859,1.2848,1.284,1.2841,1.2832,1.2838,1.2844,1.284,1.284,1.2841,1.2842,1.2842,1.2838,1.2838,1.2838,0,1.2998,1.2984,1.2971,1.2963,1.2955,1.2942,1.2935,1.2926,1.2907,1.2902,1.2898,1.2874,1.2862,1.285,1.285,1.2844,1.2842,1.284,1.2842,1.2842,1.2842,1.2843,1.2843,1.2839,1.2839,1.2838,1.2838,0,1.2994,1.2985,1.2982,1.2965,1.2957,1.295,1.2935,1.2929,1.2921,1.291,1.2899,1.2885,1.287,1.2866,1.2858,1.2853,1.2851,1.2845,1.2838,1.2844,1.2844,1.2844,1.284,1.284,1.2839,1.2839,0,0,1.3005,1.2983,1.2982,1.2975,1.2958,1.295,1.2942,1.2929,1.2924,1.2912,1.2904,1.2889,1.2884,1.2874,1.2865,1.2861,1.2863,1.2855,1.2854,1.2857,1.2857,1.2862,1.2862,1.2858,1.2857,1.2857,1.2859,0,1.3007,1.2992,1.2981,1.2971,1.2962,1.295,1.2943,1.2932,1.2923,1.2914,1.2903,1.2892,1.2886,1.288,1.2876,1.2864,1.2863,1.2864,1.285,1.285,1.2854,1.2862,1.2867,1.2868,1.2859,1.2859,1.2859,0,1.3006,1.2995,1.2985,1.297,1.2965,1.296,1.2947,1.2939,1.2926,1.2919,1.291,1.29,1.2891,1.2887,1.2874,1.2875,1.2869,1.2862,1.2862,1.2859,1.2854,1.286,1.2869,1.2869,1.2859,1.2859,1.2859,0,1.3015,1.2998,1.299,1.2984,1.2966,1.2962,1.2954,1.2942,1.2935,1.2924,1.2919,1.2907,1.29,1.2891,1.2878,1.2876,1.2867,1.2861,1.286,1.2861,1.2858,1.2858,1.2866,1.2855,1.2855,1.2855,1.2855,0,1.3017,1.3011,1.2994,1.2989,1.2982,1.2969,1.2962,1.2953,1.2942,1.2935,1.2924,1.2917,1.2901,1.2892,1.2882,1.2873,1.287,1.2864,1.2861,1.2865,1.2865,1.286,1.2859,1.2855,1.2855,1.2855,1.2855,0,1.3025,1.3014,1.3004,1.2989,1.2985,1.298,1.2966,1.2961,1.2951,1.2942,1.2939,1.2924,1.2914,1.29,1.2885,1.2878,1.2871,1.2867,1.2875,1.2873,1.2874,1.2874,1.2878,1.2877,1.2868,1.2868,1.2868,0,1.3027,1.3022,1.3007,1.3002,1.2995,1.2986,1.2979,1.2967,1.296,1.2946,1.2942,1.2931,1.2921,1.2905,1.2892,1.2881,1.2876,1.2878,1.2874,1.2878,1.2876,1.2876,1.2875,1.2879,1.2879,1.2879,1.2879,0,1.3032,1.3027,1.3018,1.3007,1.3,1.2991,1.2981,1.2978,1.2963,1.2956,1.2946,1.2939,1.2924,1.2913,1.29,1.2891,1.2883,1.2881,1.288,1.2883,1.2888,1.2885,1.2877,1.2881,1.2881,1.288,1.288,1.288,1.3036,1.3032,1.3021,1.3011,1.3003,1.2995,1.2989,1.298,1.2971,1.2959,1.2952,1.2942,1.2929,1.2912,1.2904,1.2895,1.2892,1.2891,1.2891,1.289,1.2891,1.2891,1.2893,1.2893,1.2893,1.2893,1.2893,0,1.304,1.3033,1.3024,1.3012,1.3005,1.2999,1.2988,1.2983,1.2974,1.2964,1.2955,1.2943,1.2933,1.292,1.2909,1.2905,1.2901,1.2902,1.2902,1.29,1.2895,1.2897,1.2906,1.2906,1.2906,1.2906,1.2906,1.2906,1.3041,1.3033,1.3027,1.3015,1.3008,1.2998,1.2993,1.2985,1.2977,1.2965,1.2956,1.2949,1.2937,1.2925,1.2916,1.2912,1.2908,1.2911,1.2906,1.2902,1.29,1.2899,1.2901,1.291,1.291,1.2912,1.2912,1.2912]},{"header":{"parameterUnit":"m.s-1","parameterCategory":1,"la1":30.2991,"la2":30.254,"lo1":-89.0895,"lo2":-89.0444,"dy":0.0017,"dx":0.0017,"nx":28,"ny":28,"refTime":"2025-12-30T09:00:00:Z","depth":0,"parameterNumber":3,"parameterNumberName":"V-component_of_WINDS"},"data":[0,0,0,0,0,0,0,0,0,0,0,0,0,0,0,0,0,0,0,0,0,0,0,0,0,0,0,0,0,0,0,0,0,0,0,0,0,0,0,0,0,0,0,0,0,0,0,0,0,0,0,0,0,0,0,0,0,0,-7.5266,-7.5268,0,-7.5433,-7.5435,-7.5436,-7.5393,-7.539,-7.5387,-7.5384,-7.5548,-7.5555,-7.5562,0,0,0,0,0,0,0,0,0,0,0,0,0,-7.4907,-7.4914,-7.5266,-7.5268,-7.5271,-7.5432,-7.5435,-7.5437,-7.5394,-7.539,-7.5386,-7.5382,-7.5545,-7.5554,-7.5563,0,0,0,0,0,0,0,0,0,0,0,0,0,-7.5067,-7.4916,-7.5266,-7.5269,-7.5271,-7.5432,-7.5435,-7.5438,-7.5395,-7.539,-7.5385,-7.538,-7.5542,-7.5553,-7.5564,-7.5731,0,0,-7.5598,-7.5603,0,0,0,0,0,0,0,0,-7.5058,-7.508,-7.5266,-7.5269,-7.5271,-7.5387,-7.5368,-7.5536,-7.5396,-7.5347,-7.5384,-7.5378,-7.5498,-7.5512,-7.5554,-7.5739,-7.5746,-7.5599,-7.5606,-7.5611,-7.5614,0,0,0,0,0,0,0,-7.5047,-7.5073,-7.5332,-7.5269,-7.5272,-7.526,-7.5277,-7.54,-7.5448,-7.5351,-7.5349,-7.5369,-7.5498,-7.5544,-7.5558,-7.5748,-7.5599,-7.5609,-7.5616,-7.562,-7.6079,-7.6084,0,0,0,0,0,0,-7.5034,-7.5064,-7.5327,-7.5337,-7.515,-7.5271,-7.529,-7.5355,-7.5447,-7.5456,-7.5373,-7.5367,-7.5527,-7.5545,-7.5563,-7.5766,-7.5611,-7.5621,-7.5627,-7.6074,-7.608,-7.6086,0,0,0,0,0,0,-7.5027,-7.5058,-7.532,-7.52,-7.5232,-7.5282,-7.5355,-7.5361,-7.5406,-7.5463,-7.5471,-7.5411,-7.5524,-7.5548,-7.569,-7.5771,-7.5626,-7.5636,-7.6067,-7.6076,-7.6083,-7.6172,0,0,0,0,0,0,-7.5017,-7.5056,-7.5121,-7.5202,-7.5239,-7.5446,-7.536,-7.5368,-7.5426,-7.5419,-7.5501,-7.5509,-7.5522,-7.5674,-7.5702,-7.5784,-7.5645,-7.606,-7.6071,-7.6081,-7.6162,-7.6182,-7.6199,0,0,0,0,0,-7.5004,-7.5137,-7.5124,-7.5156,-7.5321,-7.5451,-7.5472,-7.5485,-7.5433,-7.5498,-7.5535,-7.5507,-7.5758,-7.5689,-7.572,-7.5806,-7.6055,-7.6068,-7.608,-7.6154,-7.6178,-7.6199,0,0,0,0,0,0,-7.5062,-7.5148,-7.5134,-7.5298,-7.5368,-7.5443,-7.5526,-7.5511,-7.5595,-7.5584,-7.5595,-7.5614,-7.5761,-7.5797,-7.5719,-7.5973,-7.5898,-7.5918,-7.5944,-7.5968,-7.5986,-7.5974,-7.5654,0,0,0,0,0,-7.5095,-7.5194,-7.5263,-7.5401,-7.5437,-7.5476,-7.5532,-7.5537,-7.5609,-7.5637,-7.5684,-7.5753,-7.5848,-7.591,-7.5999,-7.6167,-7.6184,-7.6241,-7.626,-7.6275,-7.6292,-7.6384,-7.6411,-7.6127,-7.6127,-7.6127,0,0,-7.5161,-7.5221,-7.5282,-7.5414,-7.5469,-7.5571,-7.5501,-7.5611,-7.5686,-7.5653,-7.5792,-7.5829,-7.5907,-7.6063,-7.6134,-7.6098,-7.6374,-7.6291,-7.6303,-7.6311,-7.64,-7.6426,-7.645,-7.6136,-7.6134,-7.6133,0,0,-7.5336,-7.5391,-7.5512,-7.5569,-7.5654,-7.5679,-7.5708,-7.5787,-7.5811,-7.5951,-7.5929,-7.6018,-7.618,-7.6237,-7.6287,-7.6485,-7.6463,-7.6514,-7.6612,-7.6702,-7.6724,-7.6744,-7.6815,-7.6841,-7.653,-7.653,-7.653,0,-7.5408,-7.5563,-7.5576,-7.569,-7.5749,-7.5726,-7.5849,-7.5903,-7.6011,-7.6052,-7.601,-7.6215,-7.6265,-7.6435,-7.6484,-7.6525,-7.6558,-7.6505,-7.672,-7.674,-7.6759,-7.6827,-7.6854,-7.6536,-7.6535,-7.6535,-7.6534,0,-7.5647,-7.5755,-7.5843,-7.5952,-7.602,-7.6137,-7.6168,-7.6235,-7.6234,-7.6263,-7.6406,-7.6466,-7.6569,-7.6609,-7.6608,-7.678,-7.6755,-7.6717,-7.6642,-7.6791,-7.6856,-7.6882,-7.6544,-7.6542,-7.654,-7.6539,0,0,-7.5862,-7.5979,-7.6011,-7.6061,-7.6153,-7.6236,-7.6352,-7.6455,-7.6513,-7.6588,-7.6686,-7.6825,-7.6791,-7.6848,-7.6853,-7.6932,-7.7086,-7.6884,-7.6886,-7.692,-7.728,-7.7309,-7.7339,-7.7072,-7.7077,-7.7081,-7.7274,0,-7.6046,-7.6254,-7.627,-7.6457,-7.6556,-7.6537,-7.6638,-7.6705,-7.6736,-7.6824,-7.6856,-7.6955,-7.6902,-7.6937,-7.7014,-7.7051,-7.7159,-7.7037,-7.7162,-7.7166,-7.7144,-7.7373,-7.7403,-7.7583,-7.7299,-7.7303,-7.7306,0,-7.6287,-7.6374,-7.6571,-7.6652,-7.6694,-7.6785,-7.6881,-7.6966,-7.7041,-7.7058,-7.7123,-7.7117,-7.7236,-7.7157,-7.732,-7.7237,-7.7289,-7.7315,-7.7322,-7.7335,-7.7246,-7.7392,-7.764,-7.7667,-7.7346,-7.7343,-7.734,0,-7.6426,-7.6591,-7.6731,-7.6774,-7.6871,-7.6936,-7.6978,-7.7049,-7.711,-7.7194,-7.7234,-7.7329,-7.7381,-7.7454,-7.7474,-7.7414,-7.7637,-7.7559,-7.7654,-7.7654,-7.7702,-7.7699,-7.7963,-7.7734,-7.7734,-7.7733,-7.7733,0,-7.663,-7.6751,-7.6795,-7.6882,-7.7017,-7.7034,-7.7168,-7.7206,-7.727,-7.7362,-7.735,-7.7436,-7.7457,-7.7547,-7.7563,-7.7697,-7.772,-7.7736,-7.7739,-7.7738,-7.7736,-7.7772,-7.7761,-7.774,-7.7739,-7.7737,-7.7736,0,-7.6808,-7.6842,-7.6994,-7.7074,-7.7097,-7.7193,-7.7261,-7.7343,-7.7372,-7.749,-7.7518,-7.7564,-7.7669,-7.7697,-7.7822,-7.7833,-7.799,-7.7981,-7.7966,-7.7966,-7.8059,-7.8051,-7.8356,-7.8398,-7.8141,-7.8144,-7.8146,0,-7.6936,-7.703,-7.7121,-7.7183,-7.723,-7.733,-7.7393,-7.7413,-7.748,-7.7574,-7.7645,-7.7749,-7.7834,-7.8004,-7.8047,-7.8143,-7.8136,-7.8237,-7.8151,-7.8147,-7.8139,-7.8134,-7.8144,-7.8253,-7.8256,-7.8258,-7.826,0,-7.716,-7.7173,-7.7266,-7.7366,-7.7443,-7.7522,-7.7597,-7.7648,-7.7679,-7.7754,-7.7864,-7.793,-7.806,-7.8164,-7.8261,-7.8303,-7.8287,-7.8287,-7.8314,-7.8315,-7.8303,-7.8312,-7.8012,-7.828,-7.8278,-7.8277,-7.8276,-7.8275,-7.7318,-7.7401,-7.7479,-7.7583,-7.7643,-7.7714,-7.7796,-7.7837,-7.793,-7.8039,-7.8045,-7.8164,-7.8237,-7.8367,-7.8414,-7.8507,-7.8476,-7.8515,-7.8525,-7.8535,-7.8544,-7.8288,-7.8524,-7.8524,-7.8523,-7.8523,-7.8522,0,-7.7543,-7.7592,-7.7688,-7.7796,-7.7878,-7.7859,-7.7941,-7.8011,-7.8117,-7.8188,-7.8273,-7.8399,-7.85,-7.8552,-7.8653,-7.8717,-7.8712,-7.8742,-7.8738,-7.8748,-7.8565,-7.8532,-7.8745,-7.8745,-7.8745,-7.8744,-7.8744,-7.8744,-7.7669,-7.781,-7.7832,-7.8001,-7.8049,-7.8169,-7.8218,-7.8283,-7.834,-7.8483,-7.8568,-7.8602,-7.8665,-7.8771,-7.8862,-7.8875,-7.8913,-7.8947,-7.8956,-7.8784,-7.8761,-7.8739,-7.8709,-7.8955,-7.8955,-7.9132,-7.9134,-7.9135]}]]